Location: Arran
(51.9410°N, 101.7372°W)
Time: 07:10:57
(UTC+00:00)

SWISSCUBE - Pass Details

Date: 18 May 2025
Orbit: 685 x 693 km, 98.4° (Epoch: 20 June)

Event Time Altitude Azimuth Distance (km) Brightness Sun altitude
Rises 06:13:47 0° 12° (NNE) 3,077 ? -18.1°
Reaches altitude 10° 06:16:03 10° 10° (N) 2,157 ? -18.2°
Maximum altitude 06:20:43 63° 290° (WNW) 773 ? -18.3°
Enters shadow 06:23:12 27° 217° (SW) 1,326 ? -18.3°
